EDT,Max TemperatureF,Mean TemperatureF,Min TemperatureF,Max Dew PointF,MeanDew PointF,Min DewpointF,Max Humidity, Mean Humidity, Min Humidity, Max Sea Level PressureIn, Mean Sea Level PressureIn, Min Sea Level PressureIn, Max VisibilityMiles, Mean VisibilityMiles, Min VisibilityMiles, Max Wind SpeedMPH, Mean Wind SpeedMPH, Max Gust SpeedMPH,PrecipitationIn, CloudCover, Events, WindDirDegrees
2012-8-1,88,75,62,70,64,62,100,72,43,30.03,29.98,29.88,10,7,0,14,4,18,0.00,3,Fog,323
2012-8-2,87,76,65,71,66,63,93,69,45,30.04,29.95,29.89,10,7,0,17,4,24,T,3,Fog-Thunderstorm,184
2012-8-3,84,75,65,71,67,63,100,82,63,30.14,30.02,29.92,10,10,7,17,6,24,0.63,4,,185
2012-8-4,81,74,67,70,67,64,100,84,67,30.25,30.17,30.07,10,8,1,21,4,24,0.58,7,Rain-Thunderstorm,161
2012-8-5,84,75,66,69,67,64,100,79,58,30.30,30.21,30.12,10,8,0,15,4,31,0.00,2,Fog,156
2012-8-6,85,77,68,70,68,65,97,76,55,30.22,30.13,30.04,10,10,4,14,1,20,0.35,4,Rain,190
2012-8-7,81,75,69,70,68,66,97,82,67,30.13,30.05,29.98,10,10,2,14,1,17,0.00,5,,208
2012-8-8,86,77,68,70,67,63,97,73,48,30.12,30.03,29.97,10,10,10,15,5,18,T,4,Rain,333
2012-8-9,83,75,66,68,66,63,100,84,67,30.10,30.01,29.86,10,6,0,17,2,22,0.23,6,Fog-Rain-Thunderstorm,204
2012-8-10,80,72,64,70,65,63,100,81,62,29.96,29.89,29.81,10,8,1,13,5,17,0.01,6,Rain-Thunderstorm,210
2012-8-11,79,72,64,64,63,56,93,74,54,29.99,29.93,29.86,10,9,2,17,8,22,T,5,Rain-Thunderstorm,342
2012-8-12,82,70,58,58,56,52,90,63,36,30.09,30.01,29.97,10,10,10,12,5,18,0.00,2,,335
2012-8-13,81,69,57,62,58,55,93,68,42,30.14,30.04,29.97,10,10,10,12,4,17,T,3,Rain,194
2012-8-14,83,72,60,67,62,58,97,74,51,30.00,29.94,29.86,10,10,10,15,2,18,T,2,,256
2012-8-15,80,71,62,66,63,59,100,79,58,30.07,29.99,29.91,10,4,0,18,3,25,0.09,5,Fog-Rain,309
2012-8-16,83,70,57,64,58,52,97,66,34,30.11,30.05,29.97,10,9,6,10,2,14,0.00,1,,329
2012-8-17,76,68,60,65,62,59,97,79,60,30.06,29.98,29.89,10,6,0,16,6,22,0.02,4,Fog-Rain,336
2012-8-18,78,72,65,67,64,61,93,77,60,30.02,29.93,29.87,10,8,1,12,4,14,0.48,6,Rain,351
2012-8-19,78,71,64,65,63,58,100,78,56,29.99,29.93,29.84,10,6,0,13,3,16,0.19,7,Fog-Rain,305
2012-8-20,78,69,59,62,59,55,97,71,45,30.01,29.94,29.87,10,9,7,13,5,18,0.01,4,,338
2012-8-21,78,66,54,63,57,53,100,74,47,30.16,30.07,30.01,10,4,0,10,2,15,0.07,4,Fog-Rain,238
2012-8-22,80,69,57,65,59,55,100,74,47,30.21,30.14,30.08,10,6,0,10,2,18,T,5,Fog-Thunderstorm,343
2012-8-23,80,71,61,64,61,57,97,76,54,30.22,30.15,30.10,10,10,10,9,2,12,0.00,5,,198
2012-8-24,78,70,61,66,62,60,100,80,60,30.25,30.19,30.11,10,4,0,10,2,17,0.70,6,Fog-Rain,325
2012-8-25,83,71,58,65,60,57,100,75,49,30.25,30.20,30.09,10,4,0,12,3,16,T,5,Fog-Rain,277
2012-8-26,85,73,61,66,62,57,100,72,43,30.25,30.18,30.10,10,5,0,14,5,22,0.00,3,Fog,357
2012-8-27,83,72,60,64,62,59,100,76,51,30.25,30.16,30.04,10,5,0,14,3,18,0.00,3,Fog,176
2012-8-28,82,72,61,68,63,59,93,74,54,30.11,30.02,29.97,10,10,7,10,3,15,0.00,4,,285
2012-8-29,82,75,67,71,67,64,97,80,62,30.06,30.00,29.96,10,9,6,10,3,15,0.03,6,Rain,337
2012-8-30,82,75,67,70,67,66,93,78,62,30.20,30.10,30.01,10,7,1,14,4,17,T,5,,175
2012-8-31,88,78,67,70,67,64,100,76,51,30.33,30.22,30.14,10,7,0,10,3,21,0.00,4,Fog,193